Weather History for KHQU - May, 2013

Change the Weather History Date:

Wednesday, May 15, 2013

  Actual Average (KDBN) Record (KDBN)
Temperature  
Mean Temperature 72 °F -  
Max Temperature 87 °F 86 °F 98 °F (1933)
Min Temperature 57 °F 58 °F 47 °F (1978)
Cooling Degree Days 7    
Growing Degree Days 22 (Base 50)    
Moisture  
Dew Point 58 °F    
Average Humidity 63    
Maximum Humidity 85    
Minimum Humidity 40    
Precipitation  
Precipitation 0.00 in - - ()
Sea Level Pressure  
Sea Level Pressure 30.14 in    
Wind  
Wind Speed 5 mph (SW)    
Max Wind Speed 12 mph    
Max Gust Speed 17 mph    
Visibility 10 miles    
Events      
Averages and records for this station are not official NWS values.
T = Trace of Precipitation, MM = Missing Value Source: NWS Daily Summary

Daily Weather History Graph

Daily Weather History Graph

Search for Another Location

Airport or City:

Trip Planner

Search our weather history database for the weather conditions in past years. The results will help you decide how hot, cold, wet, or windy it might be!

Date:

Astronomy

May. 15, 2013 Rise Set
Actual Time 6:29 AM EDT 8:23 PM EDT
Civil Twilight 6:01 AM EDT 8:51 PM EDT
Nautical Twilight 5:28 AM EDT 9:24 PM EDT
Astronomical Twilight 4:53 AM EDT 10:00 PM EDT
Moon 11:01 AM EDT (5/15) 12:11 AM EDT (5/15)
Length of Visible Light 14h 49m
Length of Day
13h 54m
Waxing Crescent, 26% of the Moon is Illuminated
May 15
Waxing Crescent
May 18
First Quarter
May 25
Full
May 31
Last Quarter
Jun 8
New

Hourly Weather History & Observations

Time (EDT) Temp. Heat Index Dew Point Humidity Pressure Visibility Wind Dir Wind Speed Gust Speed Precip Events Conditions
12:15 AM 61.2 °F - 52.9 °F 74% 30.19 in 10.0 mi Calm Calm - N/A   Clear
12:35 AM 60.8 °F - 52.7 °F 75% 30.19 in 10.0 mi SSW 4.6 mph - N/A   Clear
12:55 AM 61.0 °F - 52.2 °F 73% 30.19 in 10.0 mi SSW 3.5 mph - N/A   Clear
1:15 AM 60.8 °F - 52.0 °F 73% 30.19 in 10.0 mi SSW 3.5 mph - N/A   Clear
1:35 AM 60.8 °F - 52.0 °F 73% 30.19 in 10.0 mi South 3.5 mph - N/A   Clear
1:55 AM 60.8 °F - 51.8 °F 72% 30.18 in 10.0 mi SSW 4.6 mph - N/A   Clear
2:15 AM 60.1 °F - 52.0 °F 75% 30.18 in 10.0 mi SSW 4.6 mph - N/A   Clear
2:35 AM 59.9 °F - 52.0 °F 75% 30.18 in 10.0 mi SSW 3.5 mph - N/A   Clear
2:55 AM 59.9 °F - 52.0 °F 75% 30.18 in 10.0 mi SSW 3.5 mph - N/A   Clear
3:15 AM 60.1 °F - 52.2 °F 75% 30.17 in 10.0 mi SSW 4.6 mph - N/A   Clear
3:35 AM 60.8 °F - 52.3 °F 74% 30.17 in 10.0 mi SSW 4.6 mph - N/A   Clear
3:55 AM 60.6 °F - 52.3 °F 74% 30.16 in 10.0 mi SSW 4.6 mph - N/A   Clear
4:15 AM 59.7 °F - 52.5 °F 77% 30.17 in 10.0 mi SSW 3.5 mph - N/A   Clear
4:35 AM 59.2 °F - 52.7 °F 79% 30.17 in 10.0 mi SSW 3.5 mph - N/A   Clear
4:55 AM 58.5 °F - 52.7 °F 81% 30.18 in 10.0 mi South 3.5 mph - N/A   Clear
5:15 AM 58.3 °F - 52.7 °F 82% 30.18 in 10.0 mi SSW 3.5 mph - N/A   Clear
5:35 AM 57.7 °F - 52.7 °F 83% 30.18 in 10.0 mi SSW 3.5 mph - N/A   Clear
5:55 AM 57.4 °F - 52.7 °F 84% 30.18 in 10.0 mi SSW 3.5 mph - N/A   Clear
6:15 AM 57.2 °F - 52.7 °F 85% 30.19 in 10.0 mi SSW 3.5 mph - N/A   Clear
6:35 AM 57.2 °F - 52.7 °F 85% 30.19 in 10.0 mi SSW 3.5 mph - N/A   Clear
6:55 AM 57.7 °F - 53.2 °F 85% 30.20 in 10.0 mi SSW 3.5 mph - N/A   Clear
7:15 AM 59.0 °F - 53.8 °F 83% 30.20 in 10.0 mi SSW 3.5 mph - N/A   Clear
7:35 AM 60.3 °F - 54.7 °F 82% 30.21 in 10.0 mi SSW 3.5 mph - N/A   Clear
7:55 AM 63.0 °F - 55.6 °F 77% 30.20 in 10.0 mi SW 4.6 mph - N/A   Clear
8:15 AM 64.9 °F - 56.7 °F 74% 30.21 in 10.0 mi WSW 5.8 mph - N/A   Clear
8:35 AM 66.7 °F - 57.2 °F 71% 30.21 in 10.0 mi SW 5.8 mph - N/A   Clear
8:55 AM 68.7 °F - 58.1 °F 69% 30.21 in 10.0 mi WSW 4.6 mph - N/A   Clear
9:15 AM 71.1 °F - 59.2 °F 66% 30.21 in 10.0 mi West 6.9 mph - N/A   Clear
9:35 AM 73.0 °F - 59.9 °F 63% 30.20 in 10.0 mi WSW 9.2 mph - N/A   Clear
9:55 AM 74.5 °F - 60.1 °F 61% 30.20 in 10.0 mi WSW 9.2 mph - N/A   Clear
10:15 AM 75.4 °F - 59.7 °F 58% 30.20 in 10.0 mi WSW 9.2 mph - N/A   Clear
10:35 AM 77.2 °F - 59.9 °F 55% 30.20 in 10.0 mi WSW 5.8 mph - N/A   Clear
10:55 AM 78.4 °F - 61.0 °F 55% 30.19 in 10.0 mi WSW 10.4 mph - N/A   Clear
11:15 AM 79.3 °F - 61.0 °F 53% 30.19 in 10.0 mi WSW 8.1 mph - N/A   Clear
11:35 AM 80.6 °F 81.2 °F 60.1 °F 49% 30.19 in 10.0 mi West 11.5 mph 16.1 mph N/A   Clear
11:55 AM 81.7 °F 82.2 °F 60.3 °F 48% 30.18 in 10.0 mi West 9.2 mph - N/A   Clear
12:15 PM 82.2 °F 82.7 °F 60.4 °F 48% 30.17 in 10.0 mi West 6.9 mph 16.1 mph N/A   Clear
12:35 PM 83.3 °F 83.5 °F 60.8 °F 46% 30.16 in 10.0 mi SW 8.1 mph 16.1 mph N/A   Clear
12:55 PM 83.1 °F 83.3 °F 60.3 °F 46% 30.16 in 10.0 mi SW 8.1 mph - N/A   Clear
1:15 PM 84.2 °F 84.6 °F 61.3 °F 46% 30.15 in 10.0 mi SW 4.6 mph - N/A   Clear
1:35 PM 85.6 °F 86.1 °F 62.2 °F 45% 30.15 in 10.0 mi SW 8.1 mph - N/A   Clear
1:55 PM 85.3 °F 85.4 °F 61.3 °F 44% 30.14 in 10.0 mi West 10.4 mph - N/A   Clear
2:15 PM 85.5 °F 85.7 °F 61.5 °F 44% 30.13 in 10.0 mi West 5.8 mph - N/A   Clear
2:35 PM 85.8 °F 85.9 °F 61.2 °F 43% 30.12 in 10.0 mi SSW 11.5 mph - N/A   Clear
2:55 PM 86.5 °F 86.5 °F 61.2 °F 42% 30.12 in 10.0 mi WSW 6.9 mph 17.3 mph N/A   Clear
3:15 PM 86.5 °F 86.5 °F 61.0 °F 42% 30.11 in 10.0 mi WSW 10.4 mph - N/A   Clear
3:35 PM 87.4 °F 87.7 °F 61.9 °F 42% 30.10 in 10.0 mi SW 10.4 mph - N/A   Clear
3:55 PM 87.4 °F 87.4 °F 61.3 °F 41% 30.09 in 10.0 mi West 8.1 mph 16.1 mph N/A   Clear
4:15 PM 87.1 °F 87.2 °F 61.7 °F 42% 30.08 in 10.0 mi WSW 8.1 mph - N/A   Clear
4:35 PM 87.6 °F 87.7 °F 61.0 °F 41% 30.08 in 10.0 mi West 10.4 mph 16.1 mph N/A   Clear
4:55 PM 87.6 °F 87.4 °F 60.4 °F 40% 30.08 in 10.0 mi WSW 9.2 mph - N/A   Clear
5:35 PM 87.3 °F 87.0 °F 59.9 °F 40% 30.07 in 10.0 mi West 8.1 mph 16.1 mph N/A   Clear
5:55 PM 86.9 °F 86.7 °F 60.3 °F 41% 30.06 in 10.0 mi SW 5.8 mph - N/A   Clear
6:15 PM 86.5 °F 86.3 °F 60.1 °F 41% 30.06 in 10.0 mi WSW 6.9 mph - N/A   Clear
6:35 PM 86.0 °F 85.4 °F 59.2 °F 40% 30.06 in 10.0 mi WSW 6.9 mph - N/A   Clear
6:55 PM 85.1 °F 85.0 °F 60.1 °F 43% 30.06 in 10.0 mi WSW 5.8 mph - N/A   Clear
7:15 PM 84.2 °F 84.4 °F 60.8 °F 45% 30.06 in 10.0 mi WSW 5.8 mph - N/A   Clear
7:35 PM 82.8 °F 83.4 °F 61.7 °F 49% 30.06 in 10.0 mi SW 4.6 mph - N/A   Clear
7:55 PM 80.6 °F 81.8 °F 62.4 °F 54% 30.06 in 10.0 mi SW 4.6 mph - N/A   Clear
8:15 PM 77.0 °F - 62.6 °F 61% 30.07 in 10.0 mi SW 3.5 mph - N/A   Clear
8:35 PM 75.2 °F - 62.6 °F 65% 30.07 in 10.0 mi SSW 3.5 mph - N/A   Clear
8:55 PM 71.8 °F - 63.0 °F 74% 30.07 in 10.0 mi South 3.5 mph - N/A   Clear
9:15 PM 70.7 °F - 62.6 °F 75% 30.07 in 10.0 mi Calm Calm - N/A   Clear
9:35 PM 68.9 °F - 63.0 °F 81% 30.08 in 10.0 mi SSW 4.6 mph - N/A   Clear
9:55 PM 68.2 °F - 62.6 °F 82% 30.08 in 10.0 mi South 3.5 mph - N/A   Clear
10:15 PM 70.2 °F - 61.9 °F 75% 30.08 in 10.0 mi South 4.6 mph - N/A   Clear
10:35 PM 70.2 °F - 61.5 °F 74% 30.08 in 10.0 mi SSW 3.5 mph - N/A   Clear
10:55 PM 69.8 °F - 61.3 °F 74% 30.08 in 10.0 mi SSW 4.6 mph - N/A   Clear
11:15 PM 68.9 °F - 61.0 °F 76% 30.08 in 10.0 mi SSW 3.5 mph - N/A   Clear
11:35 PM 66.9 °F - 60.8 °F 81% 30.08 in 10.0 mi SSW 3.5 mph - N/A   Clear
11:55 PM 68.2 °F - 60.4 °F 76% 30.08 in 10.0 mi SSW 4.6 mph - N/A   Clear